Location: Lac Lasalle
(46.0398°N, 74.1576°W)
Time: 22:19:20
(UTC-05:00)

SEEDS - Pass Details

Date: 16 December 2019
Orbit: 586 x 603 km, 97.5° (Epoch: 23 January)

Event Time Altitude Azimuth Distance (km) Brightness Sun altitude
Rises 06:15:34 0° 8° (N) 2,857 ? -12.7°
Reaches altitude 10° 06:17:47 10° 4° (N) 1,952 ? -12.3°
Maximum altitude 06:21:54 53° 288° (WNW) 745 ? -11.7°
Drops below altitude 10° 06:26:01 10° 211° (SSW) 1,943 ? -11.0°
Sets 06:28:13 0° 207° (SSW) 2,842 ? -10.7°
